FENGYUN 1C DEB, 30838

Orbit data source: Space-Track

FENGYUN 1C DEB, 30838 is space debris in SSO originally from a launch on Mon, 10 May 1999 UTC launched from the Taiyaun Space Center, China (TSC). Fengyun 1C debris stems from the Chinese weather satellite Fengyun-1C, which was intentionally destroyed by a Chinese anti-satellite missile in 2007. This event dramatically increased the amount of space debris, with thousands of trackable fragments posing hazards to satellites and human spaceflight. The Fengyun 1C debris cloud has become a focal point in discussions about space sustainability and the need for international regulations to prevent the creation of new debris.

Loading next visibility...
Identifier
30838, 1999-025AVY
Orbit
SSO
Country
Flag of CNCN / PRC
Related business
Manufacturer
Unknown
Mission
Spacecraft
Bus & Motor
Unknown
Mass
Unknown
Launch date (UTC)
1999-05-10 (27 years ago)
Launch vehicle
Unknown
Launch site
Taiyaun Space Center, China (TSC)
Object type
Payload
Rocket body
Debris
Shape & HBR
Unknown shape, 0.1 m
Radar Cross Section
Medium (>0.1 m² and <1 m²)

Expand to show TLE details & history
Last TLE update: 11 hours ago

TLE from 11 hours ago
0 FENGYUN 1C DEB
1 30838U 99025AVY 26255.26757008  .00004906  00000-0  12169-2 0  9992
2 30838  99.0423 194.1022 0035875  59.3492 301.1230 14.51985486 12745
Epoch: 2026-09-12T06:25Z
TLE epoch observation values (Epoch: 2026-09-12T06:25:18.054Z)
Latitude
-0.00002°
Longitude
106.49796°
Altitude
709.022 km
Speed
7.508 km/s
True Right ascension
12h 56m 24s
True Declination
0° 00' 00"
Sunlit
Object was in daylight at epoch
Visualization orbit readout
Latitude
Unknown
Longitude
Unknown
Altitude
Unknown
Speed
Unknown
Apparent Right ascension
Unknown
Apparent Declination
Unknown
Sunlit
N/A
Visualization observer readout
Local Sidereal Time
10:20:50
Azimuth
Unknown
Elevation
Unknown
Doppler factor
Unknown
Orbital elements
Apogee altitude
741.755 km
Perigee altitude
690.852 km
Semi-major axis
7,094.44 km
Eccentricity
0.00359
Inclination
99.0423°
RAAN
194.1022°
Arg. of periapsis
59.3492°
True anomaly
300.77026°
Mean anomaly
301.123°
Eccentric anomaly
300.94671°
Mean motion
3.63217 °/min
Orbital period
99.11 mins
BSTAR
0.0012169
Loading maneuver chart data...
Computing Atmospheric mass density...

Documentation

Showing up to 5 results
|